Time,TemperatureF,DewpointF,PressureIn,WindDirection,WindDirectionDegrees,WindSpeedMPH,WindSpeedGustMPH,Humidity,HourlyPrecipIn,Conditions,Clouds,dailyrainin,SoftwareType,DateUTC
2013-03-18 00:00:00,36.9,36.4,30.14,ENE,58,0.0,4.0,98,0.01,,---,0.06,VWS V14.01,2013-03-18 04:00:00,
2013-03-18 00:01:00,36.9,36.4,30.14,ENE,58,0.0,0.0,98,0.01,,---,0.00,VWS V14.01,2013-03-18 04:01:00,
2013-03-18 00:03:00,36.9,36.4,30.14,ENE,58,0.0,2.0,98,0.01,,---,0.00,VWS V14.01,2013-03-18 04:03:00,
2013-03-18 00:05:00,37.0,36.5,30.14,ENE,58,0.0,2.0,98,0.01,,---,0.00,VWS V14.01,2013-03-18 04:05:00,
2013-03-18 00:07:00,36.9,36.4,30.14,ENE,58,0.0,2.0,98,0.01,,---,0.00,VWS V14.01,2013-03-18 04:07:00,
2013-03-18 00:09:00,36.9,36.4,30.14,ENE,58,2.0,2.0,98,0.01,,---,0.00,VWS V14.01,2013-03-18 04:09:00,
2013-03-18 00:11:00,37.0,36.5,30.14,ENE,58,0.0,2.0,98,0.01,,---,0.00,VWS V14.01,2013-03-18 04:11:00,
2013-03-18 00:13:00,37.0,36.5,30.14,ENE,58,0.0,2.0,98,0.01,,---,0.00,VWS V14.01,2013-03-18 04:13:00,
2013-03-18 00:15:00,37.0,36.5,30.13,ENE,58,0.0,2.0,98,0.01,,---,0.00,VWS V14.01,2013-03-18 04:15:00,
2013-03-18 00:17:00,37.0,36.5,30.13,ENE,58,0.0,0.0,98,0.01,,---,0.00,VWS V14.01,2013-03-18 04:17:00,
2013-03-18 00:19:00,37.0,36.5,30.13,ENE,58,0.0,0.0,98,0.01,,---,0.00,VWS V14.01,2013-03-18 04:19:00,
2013-03-18 00:21:00,37.0,36.5,30.13,ENE,58,0.0,1.0,98,0.01,,---,0.00,VWS V14.01,2013-03-18 04:21:00,
2013-03-18 00:23:00,37.0,36.5,30.13,ENE,58,0.0,1.0,98,0.01,,---,0.00,VWS V14.01,2013-03-18 04:23:00,
2013-03-18 00:26:00,37.0,36.5,30.13,ENE,58,0.0,1.0,98,0.01,,---,0.00,VWS V14.01,2013-03-18 04:26:00,
2013-03-18 00:28:00,37.0,36.5,30.13,ENE,58,0.0,1.0,98,0.01,,---,0.00,VWS V14.01,2013-03-18 04:28:00,
2013-03-18 00:30:00,37.0,36.5,30.13,ENE,58,0.0,1.0,98,0.01,,---,0.00,VWS V14.01,2013-03-18 04:30:00,
2013-03-18 00:32:00,37.0,36.5,30.13,ENE,58,0.0,0.0,98,0.01,,---,0.00,VWS V14.01,2013-03-18 04:32:00,
2013-03-18 00:34:00,37.0,36.5,30.13,ENE,58,0.0,0.0,98,0.01,,---,0.00,VWS V14.01,2013-03-18 04:34:00,
2013-03-18 00:36:00,37.0,36.5,30.13,ENE,60,1.0,1.0,98,0.01,,---,0.00,VWS V14.01,2013-03-18 04:36:00,
2013-03-18 00:38:00,37.0,36.5,30.13,ENE,60,0.0,1.0,98,0.02,,---,0.01,VWS V14.01,2013-03-18 04:38:00,
2013-03-18 00:40:00,37.0,36.5,30.13,ENE,59,0.0,1.0,98,0.02,,---,0.01,VWS V14.01,2013-03-18 04:40:00,
2013-03-18 00:42:00,37.0,36.5,30.13,ENE,59,0.0,2.0,98,0.02,,---,0.01,VWS V14.01,2013-03-18 04:42:00,
2013-03-18 00:44:00,37.0,36.5,30.13,ENE,59,0.0,2.0,98,0.02,,---,0.01,VWS V14.01,2013-03-18 04:44:00,
2013-03-18 00:45:00,37.0,36.5,30.13,ENE,59,0.0,2.0,98,0.02,,---,0.01,VWS V14.01,2013-03-18 04:45:00,
2013-03-18 00:46:00,37.0,36.5,30.13,ENE,59,0.0,1.0,98,0.02,,---,0.01,VWS V14.01,2013-03-18 04:46:00,
2013-03-18 00:48:00,37.0,36.5,30.13,ENE,59,0.0,2.0,98,0.02,,---,0.01,VWS V14.01,2013-03-18 04:48:00,
2013-03-18 00:52:00,37.0,36.5,30.13,ENE,59,0.0,2.0,98,0.02,,---,0.01,VWS V14.01,2013-03-18 04:52:00,
2013-03-18 00:54:00,37.0,36.5,30.13,ENE,59,1.0,2.0,98,0.02,,---,0.01,VWS V14.01,2013-03-18 04:54:00,
2013-03-18 00:58:00,37.0,36.5,30.13,ENE,58,2.0,3.0,98,0.02,,---,0.01,VWS V14.01,2013-03-18 04:58:00,
2013-03-18 01:00:00,37.0,36.5,30.13,ENE,61,0.0,0.0,98,0.01,,---,0.01,VWS V14.01,2013-03-18 05:00:00,
2013-03-18 01:02:00,37.0,36.5,30.13,ENE,61,0.0,0.0,98,0.01,,---,0.01,VWS V14.01,2013-03-18 05:02:00,
2013-03-18 01:06:00,37.0,36.5,30.13,ENE,61,0.0,2.0,98,0.01,,---,0.01,VWS V14.01,2013-03-18 05:06:00,
2013-03-18 01:14:00,37.0,36.8,30.13,ENE,60,0.0,3.0,99,0.01,,---,0.01,VWS V14.01,2013-03-18 05:14:00,
2013-03-18 01:16:00,37.0,36.8,30.13,ENE,60,0.0,0.0,99,0.01,,---,0.01,VWS V14.01,2013-03-18 05:16:00,
2013-03-18 01:18:00,37.0,36.8,30.13,ENE,60,0.0,0.0,99,0.01,,---,0.01,VWS V14.01,2013-03-18 05:18:00,
2013-03-18 01:20:00,37.0,36.8,30.13,ENE,60,0.0,0.0,99,0.01,,---,0.01,VWS V14.01,2013-03-18 05:20:00,
2013-03-18 01:24:00,37.0,36.8,30.13,ENE,60,0.0,0.0,99,0.01,,---,0.01,VWS V14.01,2013-03-18 05:24:00,
2013-03-18 01:28:00,37.0,36.8,30.13,ENE,60,0.0,2.0,99,0.01,,---,0.01,VWS V14.01,2013-03-18 05:28:00,
2013-03-18 01:30:00,37.0,36.8,30.13,ENE,60,0.0,2.0,99,0.01,,---,0.01,VWS V14.01,2013-03-18 05:30:00,
2013-03-18 01:32:00,37.0,36.8,30.13,ENE,59,0.0,1.0,99,0.01,,---,0.01,VWS V14.01,2013-03-18 05:32:00,
2013-03-18 01:42:00,37.0,36.8,30.13,ENE,74,0.0,3.0,99,0.02,,---,0.02,VWS V14.01,2013-03-18 05:42:00,
2013-03-18 01:44:00,37.0,36.8,30.13,ENE,58,1.0,3.0,99,0.02,,---,0.02,VWS V14.01,2013-03-18 05:44:00,
2013-03-18 01:52:00,37.0,36.5,30.13,ENE,59,0.0,2.0,98,0.02,,---,0.01,VWS V14.01,2013-03-18 05:52:00,
2013-03-18 01:58:00,37.0,36.5,30.13,ENE,59,0.0,2.0,98,0.02,,---,0.01,VWS V14.01,2013-03-18 05:58:00,
2013-03-18 02:00:00,36.8,36.5,30.13,ENE,70,1.0,4.0,99,0.01,,---,0.02,VWS V14.01,2013-03-18 06:00:00,
2013-03-18 02:06:00,37.0,36.5,30.13,ENE,61,0.0,2.0,98,0.01,,---,0.01,VWS V14.01,2013-03-18 06:06:00,
2013-03-18 02:12:00,37.0,36.8,30.13,ENE,59,1.0,3.0,99,0.01,,---,0.01,VWS V14.01,2013-03-18 06:12:00,
2013-03-18 02:24:00,37.0,36.8,30.13,ENE,60,0.0,0.0,99,0.01,,---,0.01,VWS V14.01,2013-03-18 06:24:00,
2013-03-18 02:33:00,37.0,36.8,30.13,ENE,60,0.0,0.0,99,0.01,,---,0.01,VWS V14.01,2013-03-18 06:33:00,
2013-03-18 02:39:00,37.0,36.8,30.13,East,83,0.0,3.0,99,0.01,,---,0.01,VWS V14.01,2013-03-18 06:39:00,
2013-03-18 02:47:00,37.0,36.8,30.13,ENE,58,0.0,3.0,99,0.02,,---,0.02,VWS V14.01,2013-03-18 06:47:00,
2013-03-18 02:53:00,36.9,36.7,30.13,ENE,57,1.0,2.0,99,0.01,,---,0.02,VWS V14.01,2013-03-18 06:53:00,
2013-03-18 02:59:00,36.9,36.7,30.13,ENE,66,0.0,3.0,99,0.01,,---,0.02,VWS V14.01,2013-03-18 06:59:00,
2013-03-18 03:05:00,36.8,36.5,30.13,ENE,70,0.0,4.0,99,0.01,,---,0.02,VWS V14.01,2013-03-18 07:05:00,
2013-03-18 03:11:00,36.8,36.5,30.13,ENE,66,1.0,4.0,99,0.01,,---,0.02,VWS V14.01,2013-03-18 07:11:00,
2013-03-18 03:17:00,36.8,36.5,30.13,ENE,67,0.0,4.0,99,0.01,,---,0.02,VWS V14.01,2013-03-18 07:17:00,
2013-03-18 03:23:00,36.8,36.5,30.13,NE,48,0.0,3.0,99,0.01,,---,0.02,VWS V14.01,2013-03-18 07:23:00,
2013-03-18 03:29:00,36.8,36.5,30.13,NE,48,0.0,3.0,99,0.01,,---,0.02,VWS V14.01,2013-03-18 07:29:00,
2013-03-18 03:35:00,36.8,36.5,30.13,NE,48,0.0,0.0,99,0.01,,---,0.02,VWS V14.01,2013-03-18 07:35:00,
2013-03-18 03:41:00,36.8,36.5,30.13,ENE,62,0.0,3.0,99,0.02,,---,0.03,VWS V14.01,2013-03-18 07:41:00,
2013-03-18 03:47:00,36.6,36.3,30.12,ENE,62,0.0,3.0,99,0.02,,---,0.03,VWS V14.01,2013-03-18 07:47:00,
2013-03-18 03:53:00,36.6,36.3,30.12,ENE,62,0.0,3.0,99,0.01,,---,0.03,VWS V14.01,2013-03-18 07:53:00,
2013-03-18 03:59:00,36.6,36.3,30.12,ENE,63,0.0,3.0,99,0.01,,---,0.03,VWS V14.01,2013-03-18 07:59:00,
2013-03-18 04:05:00,36.6,36.3,30.12,ENE,64,0.0,3.0,99,0.01,,---,0.03,VWS V14.01,2013-03-18 08:05:00,
2013-03-18 04:11:00,36.6,36.3,30.12,ENE,65,1.0,3.0,99,0.01,,---,0.03,VWS V14.01,2013-03-18 08:11:00,
2013-03-18 04:17:00,36.6,36.3,30.12,ENE,65,0.0,3.0,99,0.02,,---,0.04,VWS V14.01,2013-03-18 08:17:00,
2013-03-18 04:24:00,36.5,36.2,30.12,ENE,58,0.0,3.0,99,0.02,,---,0.04,VWS V14.01,2013-03-18 08:24:00,
2013-03-18 04:30:00,36.5,36.2,30.12,ENE,60,1.0,3.0,99,0.02,,---,0.04,VWS V14.01,2013-03-18 08:30:00,
2013-03-18 04:36:00,36.5,36.2,30.12,ENE,60,0.0,3.0,99,0.02,,---,0.04,VWS V14.01,2013-03-18 08:36:00,
2013-03-18 04:42:00,36.5,36.2,30.12,ENE,63,0.0,3.0,99,0.02,,---,0.04,VWS V14.01,2013-03-18 08:42:00,
2013-03-18 04:47:00,36.5,36.2,30.12,ENE,63,0.0,3.0,99,0.02,,---,0.04,VWS V14.01,2013-03-18 08:47:00,
2013-03-18 04:54:00,36.5,36.2,30.12,ENE,61,0.0,2.0,99,0.01,,---,0.04,VWS V14.01,2013-03-18 08:54:00,
2013-03-18 05:00:00,36.5,36.2,30.12,ENE,61,0.0,2.0,99,0.01,,---,0.04,VWS V14.01,2013-03-18 09:00:00,
2013-03-18 05:06:00,36.5,36.2,30.12,ENE,61,2.0,2.0,99,0.01,,---,0.04,VWS V14.01,2013-03-18 09:06:00,
2013-03-18 05:12:00,36.5,36.2,30.12,ENE,65,0.0,2.0,99,0.01,,---,0.04,VWS V14.01,2013-03-18 09:12:00,
2013-03-18 05:17:00,36.3,36.0,30.13,ENE,65,2.0,3.0,99,0.01,,---,0.04,VWS V14.01,2013-03-18 09:17:00,
2013-03-18 05:24:00,36.3,36.0,30.13,ENE,72,0.0,3.0,99,0.00,,---,0.04,VWS V14.01,2013-03-18 09:24:00,
2013-03-18 05:30:00,36.2,36.0,30.13,ENE,71,2.0,5.0,99,0.01,,---,0.05,VWS V14.01,2013-03-18 09:30:00,
2013-03-18 05:36:00,36.0,35.8,30.14,ENE,70,0.0,3.0,99,0.01,,---,0.05,VWS V14.01,2013-03-18 09:36:00,
2013-03-18 05:42:00,36.0,35.8,30.14,ENE,66,3.0,3.0,99,0.01,,---,0.05,VWS V14.01,2013-03-18 09:42:00,
2013-03-18 05:48:00,36.0,35.8,30.13,ENE,60,0.0,2.0,99,0.01,,---,0.05,VWS V14.01,2013-03-18 09:48:00,
2013-03-18 05:54:00,35.9,35.7,30.13,ENE,60,0.0,2.0,99,0.01,,---,0.05,VWS V14.01,2013-03-18 09:54:00,
2013-03-18 06:00:00,35.9,35.7,30.13,ENE,60,0.0,3.0,99,0.01,,---,0.05,VWS V14.01,2013-03-18 10:00:00,
2013-03-18 06:06:00,35.9,35.7,30.14,ENE,60,0.0,2.0,99,0.01,,---,0.05,VWS V14.01,2013-03-18 10:06:00,
2013-03-18 06:12:00,36.0,35.8,30.14,ENE,60,0.0,2.0,99,0.01,,---,0.05,VWS V14.01,2013-03-18 10:12:00,
2013-03-18 06:18:00,36.0,35.8,30.14,ENE,59,0.0,1.0,99,0.01,,---,0.05,VWS V14.01,2013-03-18 10:18:00,
2013-03-18 06:25:00,35.9,35.7,30.14,ENE,70,0.0,3.0,99,0.01,,---,0.05,VWS V14.01,2013-03-18 10:25:00,
2013-03-18 06:31:00,35.9,35.7,30.14,ENE,70,2.0,3.0,99,0.01,,---,0.05,VWS V14.01,2013-03-18 10:31:00,
2013-03-18 06:37:00,35.9,35.7,30.14,ENE,70,0.0,0.0,99,0.00,,---,0.05,VWS V14.01,2013-03-18 10:37:00,
2013-03-18 06:43:00,35.9,35.7,30.14,ENE,70,0.0,1.0,99,0.00,,---,0.05,VWS V14.01,2013-03-18 10:43:00,
2013-03-18 06:49:00,35.9,35.7,30.15,ENE,59,0.0,2.0,99,0.00,,---,0.05,VWS V14.01,2013-03-18 10:49:00,
2013-03-18 06:55:00,35.9,35.7,30.15,North,354,0.0,2.0,99,0.00,,---,0.05,VWS V14.01,2013-03-18 10:55:00,
2013-03-18 07:01:00,35.8,35.5,30.15,North,359,0.0,3.0,99,0.00,,---,0.05,VWS V14.01,2013-03-18 11:01:00,
2013-03-18 07:07:00,35.8,35.5,30.16,North,359,0.0,2.0,99,0.00,,---,0.05,VWS V14.01,2013-03-18 11:07:00,
2013-03-18 07:13:00,35.8,35.5,30.16,ENE,57,3.0,4.0,99,0.00,,---,0.05,VWS V14.01,2013-03-18 11:13:00,
2013-03-18 07:19:00,35.6,35.3,30.15,ENE,77,1.0,2.0,99,0.00,,---,0.05,VWS V14.01,2013-03-18 11:19:00,
2013-03-18 07:25:00,35.6,35.3,30.15,ENE,65,0.0,5.0,99,0.00,,---,0.05,VWS V14.01,2013-03-18 11:25:00,
2013-03-18 07:31:00,35.5,35.2,30.15,ENE,65,0.0,5.0,99,0.01,,---,0.06,VWS V14.01,2013-03-18 11:31:00,
2013-03-18 07:37:00,35.6,35.3,30.16,ENE,65,0.0,1.0,99,0.01,,---,0.06,VWS V14.01,2013-03-18 11:37:00,
2013-03-18 07:43:00,35.6,35.3,30.16,ENE,65,0.0,2.0,99,0.01,,---,0.06,VWS V14.01,2013-03-18 11:43:00,
2013-03-18 07:49:00,35.6,35.3,30.16,ENE,65,0.0,2.0,99,0.01,,---,0.06,VWS V14.01,2013-03-18 11:49:00,
2013-03-18 07:55:00,35.6,35.3,30.16,NE,56,0.0,2.0,99,0.01,,---,0.06,VWS V14.01,2013-03-18 11:55:00,
2013-03-18 08:01:00,35.5,35.2,30.16,North,350,0.0,6.0,99,0.01,,---,0.06,VWS V14.01,2013-03-18 12:01:00,
2013-03-18 08:07:00,35.3,35.0,30.16,NE,52,4.0,5.0,99,0.01,,---,0.06,VWS V14.01,2013-03-18 12:07:00,
2013-03-18 08:13:00,35.2,35.0,30.16,ENE,68,0.0,6.0,99,0.01,,---,0.06,VWS V14.01,2013-03-18 12:13:00,
2013-03-18 08:19:00,35.0,34.8,30.16,ENE,62,4.0,4.0,99,0.01,,---,0.06,VWS V14.01,2013-03-18 12:19:00,
2013-03-18 08:25:00,35.0,34.8,30.16,NE,46,1.0,4.0,99,0.01,,---,0.06,VWS V14.01,2013-03-18 12:25:00,
2013-03-18 08:31:00,35.0,34.8,30.14,ENE,65,2.0,4.0,99,0.01,,---,0.06,VWS V14.01,2013-03-18 12:31:00,
2013-03-18 08:37:00,35.0,34.8,30.14,NE,54,0.0,4.0,99,0.00,,---,0.06,VWS V14.01,2013-03-18 12:37:00,
2013-03-18 08:43:00,35.0,34.8,30.14,NE,55,1.0,4.0,99,0.00,,---,0.06,VWS V14.01,2013-03-18 12:43:00,
2013-03-18 08:50:00,35.0,34.8,30.15,NE,56,0.0,2.0,99,0.00,,---,0.06,VWS V14.01,2013-03-18 12:50:00,
2013-03-18 08:56:00,35.2,35.0,30.15,ENE,68,0.0,3.0,99,0.00,,---,0.06,VWS V14.01,2013-03-18 12:56:00,
2013-03-18 09:02:00,35.2,35.0,30.14,ESE,103,3.0,4.0,99,0.00,,---,0.06,VWS V14.01,2013-03-18 13:02:00,
2013-03-18 09:08:00,35.0,34.8,30.14,ENE,65,1.0,3.0,99,0.00,,---,0.06,VWS V14.01,2013-03-18 13:08:00,
2013-03-18 09:14:00,34.9,34.7,30.14,ENE,76,3.0,3.0,99,0.00,,---,0.06,VWS V14.01,2013-03-18 13:14:00,
2013-03-18 09:20:00,34.9,34.7,30.15,NE,56,0.0,3.0,99,0.00,,---,0.06,VWS V14.01,2013-03-18 13:20:00,
2013-03-18 09:26:00,34.9,34.7,30.15,NE,53,0.0,3.0,99,0.00,,---,0.06,VWS V14.01,2013-03-18 13:26:00,
2013-03-18 09:32:00,34.7,34.5,30.15,NE,53,0.0,3.0,99,0.00,,---,0.06,VWS V14.01,2013-03-18 13:32:00,
2013-03-18 09:38:00,34.7,34.5,30.15,ENE,59,1.0,2.0,99,0.00,,---,0.06,VWS V14.01,2013-03-18 13:38:00,
2013-03-18 09:44:00,34.9,34.7,30.15,ENE,59,0.0,2.0,99,0.00,,---,0.06,VWS V14.01,2013-03-18 13:44:00,
2013-03-18 09:50:00,34.9,34.7,30.15,ENE,62,1.0,3.0,99,0.01,,---,0.07,VWS V14.01,2013-03-18 13:50:00,
2013-03-18 09:56:00,34.9,34.7,30.15,ENE,76,0.0,3.0,99,0.01,,---,0.07,VWS V14.01,2013-03-18 13:56:00,
2013-03-18 10:02:00,35.0,34.8,30.14,ENE,70,0.0,3.0,99,0.01,,---,0.07,VWS V14.01,2013-03-18 14:02:00,
2013-03-18 10:08:00,35.0,34.8,30.14,ENE,67,2.0,4.0,99,0.01,,---,0.07,VWS V14.01,2013-03-18 14:08:00,
2013-03-18 10:14:00,35.0,34.8,30.14,NE,39,0.0,4.0,99,0.01,,---,0.07,VWS V14.01,2013-03-18 14:14:00,
2013-03-18 10:20:00,34.9,34.7,30.14,NE,42,0.0,1.0,99,0.01,,---,0.07,VWS V14.01,2013-03-18 14:20:00,
2013-03-18 10:26:00,35.0,34.8,30.14,NNE,32,0.0,3.0,99,0.01,,---,0.07,VWS V14.01,2013-03-18 14:26:00,
2013-03-18 10:32:00,35.0,34.8,30.14,NE,53,0.0,3.0,99,0.01,,---,0.07,VWS V14.01,2013-03-18 14:32:00,
2013-03-18 10:38:00,35.2,35.0,30.14,NE,49,1.0,3.0,99,0.01,,---,0.07,VWS V14.01,2013-03-18 14:38:00,
2013-03-18 10:44:00,35.2,35.0,30.14,NE,52,1.0,3.0,99,0.01,,---,0.07,VWS V14.01,2013-03-18 14:44:00,
2013-03-18 10:50:00,35.3,35.0,30.13,ENE,63,0.0,3.0,99,0.02,,---,0.08,VWS V14.01,2013-03-18 14:50:00,
2013-03-18 10:56:00,35.3,35.0,30.13,ENE,63,0.0,3.0,99,0.02,,---,0.08,VWS V14.01,2013-03-18 14:56:00,
2013-03-18 11:02:00,35.3,35.0,30.14,NE,41,0.0,3.0,99,0.02,,---,0.08,VWS V14.01,2013-03-18 15:02:00,
2013-03-18 11:09:00,35.3,35.0,30.14,NE,41,0.0,0.0,99,0.01,,---,0.08,VWS V14.01,2013-03-18 15:09:00,
2013-03-18 11:15:00,35.5,35.2,30.14,ENE,63,0.0,2.0,99,0.01,,---,0.08,VWS V14.01,2013-03-18 15:15:00,
2013-03-18 11:21:00,35.8,35.5,30.12,ENE,77,4.0,4.0,99,0.01,,---,0.08,VWS V14.01,2013-03-18 15:21:00,
2013-03-18 11:27:00,36.0,35.8,30.12,ENE,57,0.0,4.0,99,0.01,,---,0.08,VWS V14.01,2013-03-18 15:27:00,
2013-03-18 11:32:00,36.0,35.8,30.11,ENE,73,0.0,4.0,99,0.01,,---,0.08,VWS V14.01,2013-03-18 15:32:00,
2013-03-18 11:39:00,36.2,36.0,30.11,ENE,60,2.0,3.0,99,0.01,,---,0.08,VWS V14.01,2013-03-18 15:39:00,
2013-03-18 11:45:00,36.2,36.0,30.11,ENE,68,0.0,3.0,99,0.01,,---,0.08,VWS V14.01,2013-03-18 15:45:00,
2013-03-18 11:51:00,36.2,36.0,30.11,ENE,60,0.0,3.0,99,0.00,,---,0.08,VWS V14.01,2013-03-18 15:51:00,
2013-03-18 11:57:00,36.0,35.8,30.11,ENE,60,0.0,3.0,99,0.00,,---,0.08,VWS V14.01,2013-03-18 15:57:00,
2013-03-18 12:02:00,36.2,36.0,30.11,ENE,68,0.0,3.0,99,0.00,,---,0.08,VWS V14.01,2013-03-18 16:02:00,
2013-03-18 12:09:00,36.5,36.2,30.11,ENE,68,0.0,3.0,99,0.00,,---,0.08,VWS V14.01,2013-03-18 16:09:00,
2013-03-18 12:15:00,36.5,36.2,30.11,NNE,14,0.0,3.0,99,0.00,,---,0.08,VWS V14.01,2013-03-18 16:15:00,
2013-03-18 12:21:00,36.6,36.3,30.11,ENE,60,0.0,1.0,99,0.00,,---,0.08,VWS V14.01,2013-03-18 16:21:00,
2013-03-18 12:27:00,36.8,36.5,30.11,ENE,72,4.0,6.0,99,0.00,,---,0.08,VWS V14.01,2013-03-18 16:27:00,
2013-03-18 12:32:00,36.9,36.7,30.09,ENE,58,0.0,6.0,99,0.00,,---,0.08,VWS V14.01,2013-03-18 16:32:00,
2013-03-18 12:37:00,36.9,36.7,30.09,ENE,67,0.0,2.0,99,0.00,,---,0.08,VWS V14.01,2013-03-18 16:37:00,
2013-03-18 12:43:00,36.9,36.7,30.09,ENE,67,0.0,2.0,99,0.00,,---,0.08,VWS V14.01,2013-03-18 16:43:00,
2013-03-18 12:49:00,37.2,37.0,30.09,ENE,67,0.0,0.0,99,0.00,,---,0.08,VWS V14.01,2013-03-18 16:49:00,
2013-03-18 12:55:00,37.2,37.0,30.09,ENE,72,0.0,2.0,99,0.00,,---,0.08,VWS V14.01,2013-03-18 16:55:00,
2013-03-18 13:02:00,37.3,37.0,30.08,ENE,72,0.0,4.0,99,0.00,,---,0.08,VWS V14.01,2013-03-18 17:02:00,
2013-03-18 13:08:00,37.3,36.8,30.08,ENE,66,2.0,3.0,98,0.00,,---,0.08,VWS V14.01,2013-03-18 17:08:00,
2013-03-18 13:14:00,37.5,37.0,30.08,ENE,68,0.0,3.0,98,0.00,,---,0.08,VWS V14.01,2013-03-18 17:14:00,
2013-03-18 13:20:00,37.3,36.8,30.07,ENE,70,2.0,4.0,98,0.00,,---,0.08,VWS V14.01,2013-03-18 17:20:00,
2013-03-18 13:26:00,37.5,37.0,30.07,ENE,70,0.0,4.0,98,0.00,,---,0.08,VWS V14.01,2013-03-18 17:26:00,
2013-03-18 13:32:00,37.5,37.0,30.06,ENE,77,1.0,4.0,98,0.00,,---,0.08,VWS V14.01,2013-03-18 17:32:00,
2013-03-18 13:38:00,37.6,37.1,30.06,ENE,75,1.0,3.0,98,0.00,,---,0.08,VWS V14.01,2013-03-18 17:38:00,
2013-03-18 13:44:00,37.8,37.3,30.06,ENE,68,1.0,4.0,98,0.00,,---,0.08,VWS V14.01,2013-03-18 17:44:00,
2013-03-18 13:50:00,37.6,36.8,30.05,ENE,62,0.0,2.0,97,0.00,,---,0.08,VWS V14.01,2013-03-18 17:50:00,
2013-03-18 13:56:00,37.8,37.0,30.05,ENE,62,1.0,3.0,97,0.00,,---,0.08,VWS V14.01,2013-03-18 17:56:00,
2013-03-18 14:02:00,37.8,37.0,30.04,ENE,62,0.0,3.0,97,0.00,,---,0.08,VWS V14.01,2013-03-18 18:02:00,
2013-03-18 14:08:00,37.8,37.0,30.04,ENE,73,0.0,3.0,97,0.00,,---,0.08,VWS V14.01,2013-03-18 18:08:00,
2013-03-18 14:14:00,37.8,37.0,30.04,ENE,62,0.0,3.0,97,0.00,,---,0.08,VWS V14.01,2013-03-18 18:14:00,
2013-03-18 14:20:00,37.9,37.1,30.02,ENE,74,0.0,2.0,97,0.00,,---,0.08,VWS V14.01,2013-03-18 18:20:00,
2013-03-18 14:26:00,38.0,37.2,30.02,ENE,74,0.0,2.0,97,0.00,,---,0.08,VWS V14.01,2013-03-18 18:26:00,
2013-03-18 14:32:00,37.8,37.0,30.02,ENE,64,0.0,2.0,97,0.00,,---,0.08,VWS V14.01,2013-03-18 18:32:00,
2013-03-18 14:38:00,37.8,37.0,30.02,ENE,69,2.0,3.0,97,0.00,,---,0.08,VWS V14.01,2013-03-18 18:38:00,
2013-03-18 14:44:00,37.8,37.0,30.02,ENE,69,0.0,3.0,97,0.00,,---,0.08,VWS V14.01,2013-03-18 18:44:00,
2013-03-18 14:50:00,37.9,37.1,30.01,ENE,69,0.0,0.0,97,0.00,,---,0.08,VWS V14.01,2013-03-18 18:50:00,
2013-03-18 14:56:00,37.9,37.1,30.01,ENE,69,0.0,2.0,97,0.00,,---,0.08,VWS V14.01,2013-03-18 18:56:00,
2013-03-18 15:02:00,37.9,37.1,30.00,ENE,63,0.0,2.0,97,0.00,,---,0.08,VWS V14.01,2013-03-18 19:02:00,
2013-03-18 15:08:00,37.9,37.1,30.00,ENE,69,0.0,2.0,97,0.00,,---,0.08,VWS V14.01,2013-03-18 19:08:00,
2013-03-18 15:14:00,37.9,37.1,30.00,ENE,66,0.0,2.0,97,0.00,,---,0.08,VWS V14.01,2013-03-18 19:14:00,
2013-03-18 15:20:00,37.6,36.6,30.00,North,1,0.0,2.0,96,0.00,,---,0.08,VWS V14.01,2013-03-18 19:20:00,
2013-03-18 15:26:00,37.6,36.8,30.00,NE,40,0.0,2.0,97,0.01,,---,0.09,VWS V14.01,2013-03-18 19:26:00,
2013-03-18 15:32:00,37.9,37.1,29.98,East,88,0.0,3.0,97,0.01,,---,0.09,VWS V14.01,2013-03-18 19:32:00,
2013-03-18 15:39:00,38.0,37.2,29.98,ENE,68,1.0,3.0,97,0.01,,---,0.09,VWS V14.01,2013-03-18 19:39:00,
2013-03-18 15:45:00,38.2,37.4,29.98,ENE,68,0.0,3.0,97,0.01,,---,0.09,VWS V14.01,2013-03-18 19:45:00,
2013-03-18 15:51:00,38.2,37.4,29.98,ENE,68,2.0,2.0,97,0.01,,---,0.09,VWS V14.01,2013-03-18 19:51:00,
2013-03-18 15:57:00,38.2,37.4,29.98,ENE,62,0.0,3.0,97,0.01,,---,0.09,VWS V14.01,2013-03-18 19:57:00,
2013-03-18 16:02:00,38.0,37.2,29.99,NE,44,0.0,3.0,97,0.01,,---,0.09,VWS V14.01,2013-03-18 20:02:00,
2013-03-18 16:09:00,38.2,37.4,29.99,NE,44,0.0,0.0,97,0.01,,---,0.09,VWS V14.01,2013-03-18 20:09:00,
2013-03-18 16:15:00,38.2,37.4,29.99,NE,44,0.0,0.0,97,0.01,,---,0.09,VWS V14.01,2013-03-18 20:15:00,
2013-03-18 16:21:00,37.9,37.1,29.99,NNE,22,0.0,2.0,97,0.01,,---,0.09,VWS V14.01,2013-03-18 20:21:00,
2013-03-18 16:27:00,37.5,36.7,29.99,North,359,0.0,3.0,97,0.01,,---,0.09,VWS V14.01,2013-03-18 20:27:00,
2013-03-18 16:32:00,37.6,36.8,29.98,North,359,0.0,3.0,97,0.01,,---,0.09,VWS V14.01,2013-03-18 20:32:00,
2013-03-18 16:39:00,37.8,37.0,29.98,ENE,75,0.0,4.0,97,0.00,,---,0.09,VWS V14.01,2013-03-18 20:39:00,
2013-03-18 16:45:00,37.9,37.1,29.98,ENE,68,0.0,4.0,97,0.00,,---,0.09,VWS V14.01,2013-03-18 20:45:00,
2013-03-18 16:51:00,37.9,37.1,29.95,ENE,68,0.0,1.0,97,0.00,,---,0.09,VWS V14.01,2013-03-18 20:51:00,
2013-03-18 16:57:00,37.8,37.0,29.95,NNE,25,1.0,2.0,97,0.00,,---,0.09,VWS V14.01,2013-03-18 20:57:00,
2013-03-18 17:02:00,37.6,36.8,29.97,NNE,25,0.0,2.0,97,0.01,,---,0.10,VWS V14.01,2013-03-18 21:02:00,
2013-03-18 17:07:00,37.5,36.7,29.97,NNE,25,0.0,0.0,97,0.01,,---,0.10,VWS V14.01,2013-03-18 21:07:00,
2013-03-18 17:13:00,37.5,36.7,29.97,NW,314,3.0,5.0,97,0.01,,---,0.10,VWS V14.01,2013-03-18 21:13:00,
2013-03-18 17:19:00,37.3,36.5,29.97,NE,39,0.0,2.0,97,0.02,,---,0.11,VWS V14.01,2013-03-18 21:19:00,
2013-03-18 17:26:00,37.3,36.8,29.97,NE,39,0.0,2.0,98,0.02,,---,0.11,VWS V14.01,2013-03-18 21:26:00,
2013-03-18 17:32:00,37.5,37.0,29.97,NE,39,0.0,2.0,98,0.02,,---,0.11,VWS V14.01,2013-03-18 21:32:00,
2013-03-18 17:38:00,37.3,36.5,29.97,NNW,342,0.0,3.0,97,0.02,,---,0.11,VWS V14.01,2013-03-18 21:38:00,
2013-03-18 17:44:00,37.2,36.4,29.97,NNW,342,0.0,3.0,97,0.02,,---,0.11,VWS V14.01,2013-03-18 21:44:00,
2013-03-18 17:50:00,37.0,36.2,29.99,NNW,342,0.0,2.0,97,0.02,,---,0.11,VWS V14.01,2013-03-18 21:50:00,
2013-03-18 17:56:00,37.0,36.2,29.99,NNW,342,0.0,3.0,97,0.02,,---,0.11,VWS V14.01,2013-03-18 21:56:00,
2013-03-18 18:02:00,37.2,36.4,29.98,NNE,33,2.0,3.0,97,0.02,,---,0.11,VWS V14.01,2013-03-18 22:02:00,
2013-03-18 18:08:00,37.2,36.7,29.98,ENE,65,0.0,2.0,98,0.02,,---,0.12,VWS V14.01,2013-03-18 22:08:00,
2013-03-18 18:14:00,37.2,36.7,29.98,ENE,69,0.0,5.0,98,0.02,,---,0.12,VWS V14.01,2013-03-18 22:14:00,
2013-03-18 18:20:00,37.2,36.7,29.94,ENE,66,0.0,1.0,98,0.02,,---,0.12,VWS V14.01,2013-03-18 22:20:00,
2013-03-18 18:26:00,36.9,36.1,29.94,NW,325,0.0,3.0,97,0.03,,---,0.13,VWS V14.01,2013-03-18 22:26:00,
2013-03-18 18:32:00,36.6,35.8,29.97,NW,325,0.0,3.0,97,0.03,,---,0.13,VWS V14.01,2013-03-18 22:32:00,
2013-03-18 18:39:00,36.6,35.8,29.97,NW,325,0.0,2.0,97,0.02,,---,0.13,VWS V14.01,2013-03-18 22:39:00,
2013-03-18 18:45:00,36.5,35.7,29.97,NNW,330,2.0,4.0,97,0.04,,---,0.15,VWS V14.01,2013-03-18 22:45:00,
2013-03-18 18:51:00,36.3,35.5,29.98,NNW,337,2.0,3.0,97,0.05,,---,0.16,VWS V14.01,2013-03-18 22:51:00,
2013-03-18 18:57:00,36.3,35.5,29.98,North,1,1.0,4.0,97,0.05,,---,0.16,VWS V14.01,2013-03-18 22:57:00,
2013-03-18 19:02:00,36.3,35.8,29.97,NNW,338,0.0,5.0,98,0.06,,---,0.17,VWS V14.01,2013-03-18 23:02:00,
2013-03-18 19:09:00,36.3,35.8,29.97,WNW,288,1.0,4.0,98,0.06,,---,0.17,VWS V14.01,2013-03-18 23:09:00,
2013-03-18 19:15:00,36.3,35.8,29.97,WNW,289,0.0,5.0,98,0.06,,---,0.17,VWS V14.01,2013-03-18 23:15:00,
2013-03-18 19:21:00,36.2,35.7,30.00,NW,316,5.0,8.0,98,0.06,,---,0.18,VWS V14.01,2013-03-18 23:21:00,
2013-03-18 19:27:00,36.2,35.7,30.00,NNW,345,2.0,8.0,98,0.06,,---,0.18,VWS V14.01,2013-03-18 23:27:00,
2013-03-18 19:32:00,36.2,35.7,29.98,SE,139,4.0,8.0,98,0.06,,---,0.18,VWS V14.01,2013-03-18 23:32:00,
2013-03-18 19:37:00,36.3,35.8,29.98,SE,139,0.0,4.0,98,0.08,,---,0.21,VWS V14.01,2013-03-18 23:37:00,
2013-03-18 19:43:00,36.3,35.8,29.98,SE,139,0.0,4.0,98,0.11,,---,0.24,VWS V14.01,2013-03-18 23:43:00,
2013-03-18 19:49:00,36.3,35.8,29.95,SE,139,0.0,0.0,98,0.11,,---,0.26,VWS V14.01,2013-03-18 23:49:00,
2013-03-18 19:55:00,36.3,35.8,29.95,SE,139,0.0,1.0,98,0.11,,---,0.26,VWS V14.01,2013-03-18 23:55:00,
2013-03-18 20:01:00,36.3,35.8,29.95,SE,139,0.0,1.0,98,0.12,,---,0.27,VWS V14.01,2013-03-19 00:01:00,
2013-03-18 20:07:00,36.3,35.8,29.95,SE,139,0.0,0.0,98,0.10,,---,0.27,VWS V14.01,2013-03-19 00:07:00,
2013-03-18 20:13:00,36.3,35.8,29.95,SE,139,0.0,0.0,98,0.11,,---,0.28,VWS V14.01,2013-03-19 00:13:00,
2013-03-18 20:19:00,36.3,35.8,29.95,SE,139,0.0,0.0,98,0.12,,---,0.29,VWS V14.01,2013-03-19 00:19:00,
2013-03-18 20:25:00,36.3,35.8,29.95,SE,139,0.0,0.0,98,0.12,,---,0.29,VWS V14.01,2013-03-19 00:25:00,
2013-03-18 20:32:00,36.5,36.0,29.93,SE,139,0.0,0.0,98,0.12,,---,0.29,VWS V14.01,2013-03-19 00:32:00,
2013-03-18 20:38:00,36.5,36.0,29.93,SE,139,0.0,0.0,98,0.11,,---,0.29,VWS V14.01,2013-03-19 00:38:00,
2013-03-18 20:44:00,36.5,36.0,29.93,SE,139,0.0,1.0,98,0.11,,---,0.29,VWS V14.01,2013-03-19 00:44:00,
2013-03-18 20:50:00,36.5,36.0,29.92,SE,139,0.0,0.0,98,0.04,,---,0.29,VWS V14.01,2013-03-19 00:50:00,
2013-03-18 20:56:00,36.5,36.2,29.92,SE,130,0.0,2.0,99,0.04,,---,0.29,VWS V14.01,2013-03-19 00:56:00,
2013-03-18 21:02:00,36.5,36.2,29.89,SE,130,0.0,2.0,99,0.04,,---,0.29,VWS V14.01,2013-03-19 01:02:00,
2013-03-18 21:08:00,36.5,36.2,29.89,SE,130,0.0,0.0,99,0.02,,---,0.29,VWS V14.01,2013-03-19 01:08:00,
2013-03-18 21:14:00,36.3,36.0,29.89,SE,130,1.0,1.0,99,0.02,,---,0.29,VWS V14.01,2013-03-19 01:14:00,
2013-03-18 21:21:00,36.3,36.0,29.88,SE,128,0.0,1.0,99,0.00,,---,0.29,VWS V14.01,2013-03-19 01:21:00,
2013-03-18 21:27:00,36.2,36.0,29.88,SE,128,1.0,3.0,99,0.00,,---,0.29,VWS V14.01,2013-03-19 01:27:00,
2013-03-18 21:32:00,36.2,36.0,29.87,NW,320,2.0,3.0,99,0.00,,---,0.29,VWS V14.01,2013-03-19 01:32:00,
2013-03-18 21:39:00,36.0,35.8,29.87,WNW,299,0.0,3.0,99,0.00,,---,0.29,VWS V14.01,2013-03-19 01:39:00,
2013-03-18 21:45:00,35.9,35.7,29.87,WNW,299,0.0,3.0,99,0.00,,---,0.29,VWS V14.01,2013-03-19 01:45:00,
2013-03-18 21:51:00,35.9,35.7,29.90,WNW,299,0.0,0.0,99,0.00,,---,0.29,VWS V14.01,2013-03-19 01:51:00,
2013-03-18 21:57:00,35.9,35.7,29.90,WNW,299,0.0,0.0,99,0.00,,---,0.29,VWS V14.01,2013-03-19 01:57:00,
2013-03-18 22:02:00,36.0,35.8,29.87,NW,316,0.0,0.0,99,0.00,,---,0.29,VWS V14.01,2013-03-19 02:02:00,
2013-03-18 22:09:00,36.0,35.8,29.87,NW,316,0.0,0.0,99,0.00,,---,0.29,VWS V14.01,2013-03-19 02:09:00,
2013-03-18 22:15:00,36.2,36.0,29.87,NW,316,0.0,0.0,99,0.00,,---,0.29,VWS V14.01,2013-03-19 02:15:00,
2013-03-18 22:21:00,36.0,35.8,29.86,NW,319,2.0,3.0,99,0.00,,---,0.29,VWS V14.01,2013-03-19 02:21:00,
2013-03-18 22:27:00,36.0,35.8,29.86,NW,319,0.0,3.0,99,0.00,,---,0.29,VWS V14.01,2013-03-19 02:27:00,
2013-03-18 22:34:00,36.0,35.8,29.86,NW,319,3.0,3.0,99,0.00,,---,0.29,VWS V14.01,2013-03-19 02:34:00,
2013-03-18 22:40:00,36.0,35.8,29.86,NW,325,1.0,3.0,99,0.00,,---,0.29,VWS V14.01,2013-03-19 02:40:00,
2013-03-18 22:46:00,36.0,35.8,29.86,NW,315,4.0,4.0,99,0.00,,---,0.29,VWS V14.01,2013-03-19 02:46:00,
2013-03-18 22:52:00,36.0,35.8,29.90,West,269,2.0,6.0,99,0.00,,---,0.29,VWS V14.01,2013-03-19 02:52:00,
2013-03-18 22:58:00,35.9,35.7,29.90,NW,313,0.0,7.0,99,0.00,,---,0.29,VWS V14.01,2013-03-19 02:58:00,
2013-03-18 23:04:00,35.9,35.7,29.88,NW,313,0.0,0.0,99,0.00,,---,0.29,VWS V14.01,2013-03-19 03:04:00,
2013-03-18 23:10:00,35.9,35.7,29.88,NW,313,0.0,3.0,99,0.00,,---,0.29,VWS V14.01,2013-03-19 03:10:00,
2013-03-18 23:16:00,35.9,35.7,29.86,NNE,30,0.0,3.0,99,0.00,,---,0.29,VWS V14.01,2013-03-19 03:16:00,
2013-03-18 23:22:00,36.0,35.8,29.86,NNE,30,0.0,0.0,99,0.00,,---,0.29,VWS V14.01,2013-03-19 03:22:00,
2013-03-18 23:29:00,36.0,35.8,29.86,NNE,30,0.0,1.0,99,0.00,,---,0.29,VWS V14.01,2013-03-19 03:29:00,
2013-03-18 23:35:00,35.9,35.7,29.85,NNE,30,0.0,0.0,99,0.00,,---,0.29,VWS V14.01,2013-03-19 03:35:00,
2013-03-18 23:41:00,35.9,35.7,29.85,NNE,29,0.0,0.0,99,0.00,,---,0.29,VWS V14.01,2013-03-19 03:41:00,
2013-03-18 23:47:00,35.9,35.7,29.88,NNE,29,0.0,0.0,99,0.00,,---,0.29,VWS V14.01,2013-03-19 03:47:00,
2013-03-18 23:53:00,35.9,35.7,29.88,NNE,29,0.0,1.0,99,0.00,,---,0.29,VWS V14.01,2013-03-19 03:53:00,
2013-03-18 23:59:00,35.9,35.7,29.88,NNE,27,0.0,1.0,99,0.00,,---,0.29,VWS V14.01,2013-03-19 03:59:00,